Погода в Троицке

Россия / Республика Мордовия     54°05′18″N   43°49′22″E
темп.,
°C
ветер,
м/с
пор.,
м/с
влажн.,
%
обл.,
%
осадки,
мм/ч
давл.,
гПа
погр.,
м
21 апреля, ср
ср2100:00+4вюв112191100 9.1 10121080
03:00+6юв122288100 12.6 10101125
06:00+6юв122181100 0.1 1009841
09:00+8юв11197880 0.1 1010888
12:00+7ююв91691100 0.5 1010869
15:00+9ююв81489100 1.0 1010731
18:00+8ю61294100 2.4 1011694
21:00+6юз41190100 4.8 1016694
22 апреля, чт
чт2200:00+6ю4995100 0.1 1017320
03:00+6ю4119487 0.1 1017343
06:00+5ю49955 0.1 1019265
09:00+8ююз5108356 0.3 1019697
12:00+10юз71069100 0.5 10201321
15:00+10зюз696369 0.5 10211365
18:00+9зюз476461 0.0 1022373
21:00+6ююз22765 0.0 102318
23 апреля, пт
пт2300:00+7ююв367896 0.0 1023105
03:00+7ююв497990 0.0 1023181
06:00+7ююв4882100 0.0 1023177
09:00+9ююв4877100 0.0 1023273
12:00+13ю465963 0.0 1022632
15:00+16ююв444768 0.0 10211919
18:00+13ююз236557 0.3 102172
21:00+10ююв237385 0.3 102031
24 апреля, сб
сб2400:00+9ююв388078 0.0 1019161
03:00+8ююв498696 0.1 1017258
06:00+8юв388684 0.0 1016238
09:00+12юв576722 0.0 1014845
12:00+14ююв575367 0.0 10121686
15:00+15ю685579 0.9 10101574
18:00+10зюз41086100 2.9 1009917
21:00+6з5886100 4.1 1011789
25 апреля, вс
вс2500:00+5з410877 0.0 1012611
03:00+4юз410925 0.0 1012324
06:00+4зюз510890 0.0 1013393
09:00+7зюз686570 0.0 10141025
12:00+9зюз7851100 0.4 10142011
15:00+10зюз6748100 0.6 10151965
18:00+8зюз57585 0.3 1016716
21:00+5юз38735 0.3 1017158